Weather History for Arctic Village, AK

Change the Weather History Date:

Tuesday, November 13, 2012

  Actual Average Record
Temperature  
Mean Temperature -8 °F -  
Max Temperature 5 °F -4 °F 35 °F (1962)
Min Temperature -22 °F -22 °F -49 °F (1989)
Degree Days  
Heating Degree Days 74    
Moisture  
Dew Point -23 °F    
Average Humidity 49    
Maximum Humidity 100    
Minimum Humidity 4    
Precipitation  
Precipitation 0.00 in - - ()
Sea Level Pressure  
Sea Level Pressure 29.86 in    
Wind  
Wind Speed 3 mph (WSW)    
Max Wind Speed 18 mph    
Max Gust Speed 21 mph    
Visibility 10 miles    
Events      
Averages and records for this station are not official NWS values.
T = Trace of Precipitation, MM = Missing Value Source: NWS Daily Summary

Daily Weather History Graph

Daily Weather History Graph

Search for Another Location

Airport:

Trip Planner

Search our weather history database for the weather conditions in past years. The results will help you decide how hot, cold, wet, or windy it might be!

Date:

Astronomy

Nov. 13, 2012 Rise Set
Actual Time 9:51 AM AKST 3:01 PM AKST
Civil Twilight 8:32 AM AKST 4:19 PM AKST
Nautical Twilight 7:20 AM AKST 5:32 PM AKST
Astronomical Twilight 6:13 AM AKST 6:38 PM AKST
Moon 10:01 AM AKST (11/13) 2:35 PM AKST (11/13)
Length of Visible Light 7h 46m
Length of Day
5h 10m
Waning Crescent, 0% of the Moon is Illuminated
Nov 13
Waning Crescent
Nov 13
New
Nov 20
First Quarter
Nov 28
Full
Dec 6
Last Quarter

Hourly Weather History & Observations

Time (AKST) Temp. Windchill Dew Point Humidity Pressure Visibility Wind Dir Wind Speed Gust Speed Precip Events Conditions
12:16 AM -14.8 °F - -29.2 °F 48% 29.88 in 10.0 mi Calm Calm - N/A   Overcast
12:36 AM -14.8 °F - -25.6 °F 58% 29.87 in 10.0 mi Calm Calm - N/A   Overcast
12:56 AM -14.8 °F - -25.6 °F 58% 29.87 in 10.0 mi Calm Calm - N/A   Overcast
1:16 AM -14.8 °F - -25.6 °F 58% 29.87 in 10.0 mi Calm Calm - N/A   Overcast
1:36 AM -14.8 °F - -25.6 °F 58% 29.88 in 10.0 mi Calm Calm - N/A   Scattered Clouds
1:56 AM -16.6 °F - -27.4 °F 58% 29.89 in 10.0 mi Calm Calm - N/A   Clear
2:16 AM -16.6 °F - -27.4 °F 58% 29.90 in 10.0 mi Calm Calm - N/A   Clear
2:36 AM -16.6 °F - -27.4 °F 58% 29.91 in 10.0 mi Calm Calm - N/A   Clear
3:16 AM -18.4 °F - - N/A% 29.90 in 10.0 mi Calm Calm - N/A   Clear
3:36 AM -18.4 °F - -117.4 °F 4% 29.90 in 10.0 mi Calm Calm - N/A   Clear
3:56 AM -20.2 °F - - N/A% 29.91 in 10.0 mi Calm Calm - N/A   Clear
4:16 AM -20.2 °F - - N/A% 29.91 in 10.0 mi Calm Calm - N/A   Clear
4:36 AM -20.2 °F - - N/A% 29.92 in 10.0 mi Calm Calm - N/A   Clear
4:56 AM -22.0 °F - - N/A% 29.93 in 10.0 mi Calm Calm - N/A   Clear
5:16 AM -18.4 °F - - N/A% 29.93 in 10.0 mi Calm Calm - N/A   Clear
5:36 AM -18.4 °F - - N/A% 29.93 in 10.0 mi Calm Calm - N/A   Clear
5:56 AM -20.2 °F - - N/A% 29.93 in 10.0 mi Calm Calm - N/A   Clear
6:16 AM -20.2 °F - - N/A% 29.94 in 10.0 mi Calm Calm - N/A   Clear
6:36 AM -18.4 °F - - N/A% 29.94 in 10.0 mi Calm Calm - N/A   Clear
6:56 AM -18.4 °F - - N/A% 29.94 in 10.0 mi Calm Calm - N/A   Clear
7:16 AM -18.4 °F - - N/A% 29.94 in 10.0 mi Calm Calm - N/A   Clear
7:36 AM -18.4 °F - - N/A% 29.94 in 10.0 mi Calm Calm - N/A   Clear
7:56 AM -13.0 °F -25.1 °F - N/A% 29.94 in 10.0 mi WSW 4.6 mph - N/A   Clear
8:16 AM -14.8 °F - - N/A% 29.94 in 10.0 mi Calm Calm - N/A   Clear
8:36 AM -11.2 °F -20.6 °F - N/A% 29.94 in 10.0 mi SE 3.5 mph - N/A   Clear
8:56 AM -14.8 °F - - N/A% 29.94 in 10.0 mi Calm Calm - N/A   Clear
9:16 AM -9.4 °F -18.6 °F - N/A% 29.95 in 10.0 mi ESE 3.5 mph - N/A   Clear
9:36 AM -13.0 °F -22.7 °F - N/A% 29.96 in 10.0 mi South 3.5 mph - N/A   Clear
9:56 AM -13.0 °F -22.7 °F -14.8 °F 92% 29.96 in 10.0 mi WNW 3.5 mph - N/A   Clear
10:16 AM -14.8 °F - - N/A% 29.96 in 10.0 mi Calm Calm - N/A   Clear
10:36 AM -11.2 °F -23.0 °F - N/A% 29.96 in 10.0 mi WSW 4.6 mph - N/A   Clear
10:56 AM -9.4 °F -22.7 °F - N/A% 29.95 in 10.0 mi WSW 5.8 mph - N/A   Clear
11:16 AM -2.2 °F -15.6 °F -16.6 °F 50% 29.94 in 10.0 mi West 6.9 mph - N/A   Clear
11:36 AM 3.2 °F -13.9 °F -23.8 °F 28% 29.94 in 10.0 mi SW 12.7 mph 17.3 mph N/A   Clear
11:56 AM 3.2 °F -15.3 °F -18.4 °F 36% 29.93 in 10.0 mi WSW 15.0 mph 20.7 mph N/A   Clear
12:16 PM 5.0 °F -10.0 °F -11.2 °F 47% 29.93 in 10.0 mi SW 10.4 mph 16.1 mph N/A   Clear
12:36 PM 3.2 °F -10.3 °F -16.6 °F 39% 29.93 in 10.0 mi WSW 8.1 mph - N/A   Clear
12:56 PM 3.2 °F -6.2 °F -14.8 °F 43% 29.92 in 10.0 mi West 4.6 mph - N/A   Clear
1:16 PM 3.2 °F -11.3 °F -11.2 °F 51% 29.91 in 10.0 mi West 9.2 mph - N/A   Clear
1:36 PM 1.4 °F -15.3 °F -13.0 °F 51% 29.90 in 10.0 mi West 11.5 mph - N/A   Clear
1:56 PM 1.4 °F -16.1 °F -14.8 °F 47% 29.89 in 10.0 mi West 12.7 mph - N/A   Clear
2:16 PM 1.4 °F -15.3 °F 1.4 °F 100% 29.88 in 10.0 mi West 11.5 mph - N/A   Clear
2:36 PM -0.4 °F - -27.4 °F 27% 29.87 in 10.0 mi Calm Calm - N/A   Clear
2:56 PM -0.4 °F -10.4 °F -25.6 °F 30% 29.86 in 10.0 mi WSW 4.6 mph - N/A   Clear
3:16 PM -0.4 °F -15.7 °F -25.6 °F 30% 29.85 in 10.0 mi SW 9.2 mph - N/A   Clear
3:36 PM -0.4 °F -18.4 °F -23.8 °F 32% 29.83 in 10.0 mi WSW 12.7 mph - N/A   Clear
3:56 PM -0.4 °F -12.0 °F -20.2 °F 39% 29.82 in 10.0 mi SW 5.8 mph - N/A   Clear
4:16 PM -0.4 °F - -20.2 °F 39% 29.81 in 10.0 mi Calm Calm - N/A   Clear
4:36 PM -0.4 °F -19.9 °F -18.4 °F 43% 29.80 in 10.0 mi WSW 15.0 mph - N/A   Clear
4:56 PM -0.4 °F -19.2 °F -18.4 °F 43% 29.79 in 10.0 mi WSW 13.8 mph - N/A   Clear
5:16 PM -0.4 °F -20.5 °F -7.6 °F 72% 29.78 in 10.0 mi WSW 16.1 mph - N/A   Clear
5:36 PM -2.2 °F -21.5 °F -9.4 °F 71% 29.77 in 10.0 mi WSW 13.8 mph - N/A   Clear
5:56 PM -0.4 °F -20.5 °F -27.4 °F 27% 29.76 in 10.0 mi WSW 16.1 mph - N/A   Clear
6:16 PM -0.4 °F -21.7 °F -9.4 °F 66% 29.75 in 10.0 mi WSW 18.4 mph - N/A   Clear
6:36 PM -2.2 °F -21.5 °F - N/A% 29.75 in 10.0 mi WSW 13.8 mph - N/A   Clear
6:56 PM -2.2 °F -18.0 °F - N/A% 29.75 in 10.0 mi WSW 9.2 mph - N/A   Clear
7:16 PM -4.0 °F -16.3 °F -29.2 °F 29% 29.74 in 10.0 mi NNE 5.8 mph - N/A   Clear
7:36 PM -9.4 °F -18.6 °F - N/A% 29.74 in 10.0 mi East 3.5 mph - N/A   Clear
7:56 PM -9.4 °F -18.6 °F - N/A% 29.73 in 10.0 mi NNE 3.5 mph - N/A   Clear
8:16 PM -13.0 °F - - N/A% 29.73 in 10.0 mi Calm Calm - N/A   Clear
8:36 PM -13.0 °F -22.7 °F -27.4 °F 49% 29.72 in 10.0 mi NNE 3.5 mph - N/A   Clear
8:56 PM -16.6 °F - - N/A% 29.72 in 10.0 mi Calm Calm - N/A   Clear
9:16 PM -16.6 °F - - N/A% 29.72 in 10.0 mi Calm Calm - N/A   Clear
9:36 PM -14.8 °F - -18.4 °F 84% 29.72 in 10.0 mi Calm Calm - N/A   Clear
9:56 PM -16.6 °F -26.8 °F - N/A% 29.72 in 10.0 mi NE 3.5 mph - N/A   Clear
10:16 PM -16.6 °F - - N/A% 29.72 in 10.0 mi Calm Calm - N/A   Clear
10:36 PM -20.2 °F - - N/A% 29.71 in 10.0 mi Calm Calm - N/A   Clear
10:56 PM -16.6 °F -26.8 °F - N/A% 29.72 in 10.0 mi NE 3.5 mph - N/A   Clear
11:16 PM -14.8 °F - - N/A% 29.72 in 10.0 mi Calm Calm - N/A   Clear
11:36 PM -14.8 °F - - N/A% 29.72 in 10.0 mi Calm Calm - N/A   Clear
11:56 PM -18.4 °F -28.9 °F - N/A% 29.73 in 10.0 mi ESE 3.5 mph - N/A   Clear